Weather in Zaozerny

Russia / Kemerovo Oblast     55°53′26″N   84°43′14″E
temp.,
°C
wind,
m/s
gust,
m/s
humid.,
%
clouds,
%
prec.,
mm/h
press.,
hPa
HPBL,
m
28 october, thu
thu2801:00−2wsw486312 0.0 1026298
04:00−3sw366631 0.0 1027182
07:00−3sw386899 0.0 1028205
10:00−2ssw486368 0.0 1028352
13:00+1sw5850100 0.0 1027845
16:00+2ssw585189 0.0 1026949
19:000s5125272 0.0 1025493
22:000s61452100 0.0 1024508
29 october, fri
fri2901:000s61449100 0.0 1023506
04:000s71544100 0.0 1021554
07:00+1s71644100 0.2 1019587
10:00+2ssw81763100 0.1 1019725
13:00+4ssw81448100 0.1 1018877
16:00+5ssw8144991 0.0 1017983
19:00+4sw71549100 0.0 1017744
22:00+4sw81544100 0.0 1017895
30 october, sat
sat3001:00+4sw81545100 0.0 1016897
04:00+4sw81452100 0.0 10161068
07:00+1sw71491100 0.1 1018851
10:00−1wnw511665 1.2 10221052
13:00−1w69485 1.2 10241167
16:00−1wsw510475 0.0 10241336
19:00−3sw5105587 0.0 1025377
22:00−3sw51152100 0.0 1024578
31 october, sun
sun3101:00−2sw51158100 0.0 1023571
04:00−2ssw61249100 0.0 1020625
07:00−2ssw61454100 0.1 1017675
10:00+1s81596100 0.7 1012960
13:00+1ssw81696100 1.5 1008998
16:00+1ssw81597100 1.0 10041007
19:00+1sw61297100 2.5 1003773
22:00−3wnw91492100 1.0 1005761
1 november, mon
mon101:00−4wnw81392100 1.6 1010903
04:00−6wnw71290100 0.6 1015764
07:00−8wnw6118388 0.6 1020631
10:00−9w5984100 0.0 1023649
13:00−7wsw5772100 0.0 1024910
16:00−6sw5874100 0.0 1024937
19:00−6sw5980100 0.0 1022687
22:00−6s4986100 0.0 1020596